Weather History for Walla Walla, WA

Change the Weather History Date:

Wednesday, February 27, 2013

  Actual Average Record
Temperature  
Mean Temperature 46 °F -  
Max Temperature 55 °F 51 °F 64 °F (1972)
Min Temperature 36 °F 35 °F 11 °F (1993)
Degree Days  
Heating Degree Days 20    
Moisture  
Dew Point 28 °F    
Average Humidity 51    
Maximum Humidity 71    
Minimum Humidity 31    
Precipitation  
Precipitation 0.00 in - - ()
Sea Level Pressure  
Sea Level Pressure 30.27 in    
Wind  
Wind Speed 4 mph (SW)    
Max Wind Speed 14 mph    
Max Gust Speed 18 mph    
Visibility 10 miles    
Events Rain    
Averages and records for this station are not official NWS values.
T = Trace of Precipitation, MM = Missing Value Source: NWS Daily Summary

Daily Weather History Graph

Daily Weather History Graph

Search for Another Location

Airport:

Trip Planner

Search our weather history database for the weather conditions in past years. The results will help you decide how hot, cold, wet, or windy it might be!

Date:

Astronomy

Feb. 27, 2013 Rise Set
Actual Time 6:35 AM PST 5:37 PM PST
Civil Twilight 6:04 AM PST 6:07 PM PST
Nautical Twilight 5:30 AM PST 6:42 PM PST
Astronomical Twilight 4:55 AM PST 7:16 PM PST
Moon 8:15 PM PST (2/27) 7:03 AM PST (2/27)
Length of Visible Light 12h 02m
Length of Day
11h 02m
Waning Gibbous, 96% of the Moon is Illuminated
Feb 27
Waning Gibbous
Mar 4
Last Quarter
Mar 11
New
Mar 19
First Quarter
Mar 27
Full

Hourly Weather History & Observations

Time (PST) Temp. Windchill Dew Point Humidity Pressure Visibility Wind Dir Wind Speed Gust Speed Precip Events Conditions
12:53 AM 37.9 °F - 25.0 °F 60% 30.23 in 10.0 mi Calm Calm - N/A   Overcast
1:53 AM 39.0 °F 36.8 °F 27.0 °F 62% 30.23 in 10.0 mi North 3.5 mph - N/A   Overcast
2:53 AM 42.1 °F 39.2 °F 25.0 °F 51% 30.24 in 10.0 mi West 4.6 mph - N/A   Overcast
3:53 AM 37.9 °F 32.7 °F 24.1 °F 57% 30.25 in 10.0 mi SSE 6.9 mph - N/A   Partly Cloudy
4:53 AM 42.1 °F 36.1 °F 24.1 °F 49% 30.25 in 10.0 mi South 10.4 mph - N/A   Scattered Clouds
5:53 AM 36.0 °F - 27.0 °F 70% 30.27 in 10.0 mi Calm Calm - N/A   Overcast
7:53 AM 43.0 °F 39.5 °F 27.0 °F 53% 30.30 in 10.0 mi SSW 5.8 mph - N/A   Scattered Clouds
8:53 AM 43.0 °F 40.3 °F 28.9 °F 58% 30.32 in 10.0 mi WSW 4.6 mph - N/A   Partly Cloudy
9:53 AM 46.9 °F - 28.9 °F 50% 30.32 in 10.0 mi SW 8.1 mph - N/A   Clear
10:53 AM 50.0 °F - 25.0 °F 38% 30.32 in 10.0 mi SW 13.8 mph - N/A   Clear
11:53 AM 52.0 °F - 25.0 °F 35% 30.31 in 10.0 mi SW 11.5 mph - N/A   Partly Cloudy
12:53 PM 54.0 °F - 27.0 °F 35% 30.28 in 10.0 mi SW 11.5 mph 18.4 mph N/A   Partly Cloudy
1:53 PM 55.0 °F - 25.0 °F 31% 30.28 in 10.0 mi West 6.9 mph 16.1 mph N/A   Clear
2:53 PM 55.0 °F - 26.1 °F 33% 30.27 in 10.0 mi West 8.1 mph - N/A   Clear
3:53 PM 55.0 °F - 27.0 °F 34% 30.27 in 10.0 mi West 3.5 mph - N/A   Clear
4:53 PM 53.1 °F - 28.9 °F 40% 30.25 in 10.0 mi Calm Calm - N/A   Partly Cloudy
5:53 PM 50.0 °F - 30.0 °F 46% 30.27 in 10.0 mi Calm Calm - N/A   Overcast
6:53 PM 48.9 °F - 30.9 °F 50% 30.27 in 10.0 mi Calm Calm - N/A   Overcast
7:53 PM 46.0 °F - 33.1 °F 61% 30.27 in 10.0 mi Calm Calm - N/A   Overcast
8:53 PM 46.9 °F - 32.0 °F 56% 30.26 in 10.0 mi SSE 3.5 mph - N/A   Overcast
9:53 PM 44.1 °F - 35.1 °F 71% 30.26 in 10.0 mi Calm Calm - N/A   Overcast
10:53 PM 50.0 °F - 34.0 °F 54% 30.28 in 10.0 mi SW 10.4 mph - 0.00 in Rain Light Rain
11:53 PM 46.9 °F - 37.0 °F 68% 30.29 in 10.0 mi West 5.8 mph - 0.00 in Rain Light Rain